Voltar ao catálogo

FENGYUN 1C DEB

AtivoPO
NORAD 30934·DEBRIS·🇨🇳 China

Lançado May 10, 1999 de Taiyuan Satellite Launch Center

Loading…

Próximas Passagens (próximas 24 horas)

TLE

AtualizadoSource: Space-Track

Época: Sep 14, 2026, 19:29 UTC

1 30934U 99025AZY 26257.81186957  .00000800  00000-0  95759-3 0  9997
2 30934  98.7440 105.9482 0339928  97.3808 266.6085 13.47505859954256

Acompanhe FENGYUN 1C DEB em tempo real com AllMySat

Download on the App Store